Flag Weather past 2 weeks in Kawasaki, Japan

Now
61 °F

Passing clouds.


Feels Like: 61 °F
Forecast: 62 / 68 °F
Wind: 9 mph from South

Location: Tokyo International Airport

Current Time: Nov 28, 2014 at 9:51:46 PM

Latest Report: Nov 28, 2014 at 9:00 PM


Visibility: N/A

Pressure: 30.12 "Hg

Humidity: 83%

Dew point: 55 °F

Location of KawasakiLocation

Historic Weather in Kawasaki — Graph

°F

Kawasaki temperature yesterday

Maximum temperature yesterday: 61 °F (at 1:00 PM)
Minimum temperature yesterday: 50 °F (at 12:00 AM)
Average temperature yesterday: 56 °F

Past Weeks' High & Low Weather Summary

 TemperatureHumidityPressure
High64 °F (Nov 23, 12:30 PM)94% (Nov 20, 5:30 PM)30.33 "Hg (Nov 20, 5:30 PM)
Low46 °F (Nov 14, 6:30 AM)29% (Nov 15, 11:00 AM)29.80 "Hg (Nov 13, 8:00 PM)
Average55 °F64%30.11 "Hg
* Reported Nov 13 8:00 PM — Nov 28 8:30 PM, Kawasaki, Weather by CustomWeather, © 2014

Note: Actual official high and low records may vary slightly from our data, if they occured in-between our weather recording intervals... More about our weather records

Advertising

Kawasaki weather history for previous 24 hours

 ConditionsComfort  
Time TempWeatherWind HumidityBarometerVisibility
8:30 PM
Nov 28
61 °FPartly cloudy.12 mph83%30.15 "HgN/A
8:00 PM61 °FPassing clouds.14 mph83%30.15 "HgN/A
7:30 PM59 °FPassing clouds.10 mph82%30.15 "HgN/A
7:00 PM59 °FScattered showers. Passing clouds.10 mph82%30.15 "HgN/A
6:30 PM61 °FScattered showers. Passing clouds.10 mph77%30.18 "HgN/A
6:00 PM59 °FScattered showers. Passing clouds.2 mph77%30.18 "HgN/A
5:30 PM59 °FScattered showers. Passing clouds.2 mph82%30.18 "HgN/A
5:00 PM59 °FScattered showers. Passing clouds.5 mph82%30.18 "HgN/A
4:30 PM59 °FLight rain. Partly cloudy.2 mph82%30.18 "HgN/A
4:00 PM59 °FLight rain. Partly sunny.3 mph82%30.18 "HgN/A
3:30 PM59 °FLight rain. Partly sunny.2 mph82%30.18 "HgN/A
3:00 PM59 °FPartly sunny.3 mph77%30.18 "HgN/A
2:30 PM59 °FPartly sunny.3 mph77%30.18 "HgN/A
2:00 PM59 °FLight rain. Partly sunny.3 mph77%30.18 "HgN/A
1:30 PM59 °FPartly sunny.5 mph77%30.18 "HgN/A
12:30 PM59 °FBroken clouds.5 mph72%30.21 "HgN/A
12:00 PM59 °FBroken clouds.5 mph72%30.21 "HgN/A
11:30 AM57 °FBroken clouds.5 mph77%30.24 "HgN/A
11:00 AM57 °FPartly sunny.3 mph77%30.24 "HgN/A
10:30 AM57 °FPartly sunny.6 mph77%30.27 "HgN/A
10:00 AM57 °FPartly sunny.6 mph77%30.27 "HgN/A
9:30 AM55 °FPartly sunny.6 mph82%30.30 "HgN/A
9:00 AM55 °FPartly sunny.5 mph82%30.30 "HgN/A
8:30 AM55 °FPartly sunny.5 mph82%30.30 "HgN/A
8:00 AM55 °FPartly sunny.5 mph82%30.30 "HgN/A
7:30 AM54 °FPartly sunny.5 mph88%30.27 "HgN/A
7:00 AM54 °FPartly sunny.5 mph88%30.27 "HgN/A
6:30 AM54 °FPartly sunny.8 mph88%30.27 "HgN/A
6:00 AM54 °FPassing clouds.5 mph88%30.27 "HgN/A
5:30 AM55 °FPassing clouds.6 mph88%30.27 "HgN/A
5:00 AM55 °FPartly cloudy.6 mph88%30.27 "HgN/A
4:30 AM57 °FPartly cloudy.3 mph88%30.24 "HgN/A
4:00 AM55 °FPartly cloudy.3 mph88%30.24 "HgN/A
3:30 AM57 °FPassing clouds.3 mph82%30.24 "HgN/A
3:00 AM55 °FPassing clouds.2 mph88%30.24 "HgN/A
2:30 AM54 °FPartly cloudy.3 mph88%30.27 "HgN/A
2:00 AM54 °FPassing clouds.3 mph88%30.27 "HgN/A
1:30 AM55 °FPassing clouds.5 mph88%30.27 "HgN/A
1:00 AM54 °FPassing clouds.6 mph94%30.24 "HgN/A
12:30 AM54 °FPassing clouds.7 mph88%30.24 "HgN/A
12:00 AM57 °FPassing clouds.7 mph77%30.24 "HgN/A
11:30 PM
Nov 27
57 °FPassing clouds.8 mph77%30.24 "HgN/A
11:00 PM57 °FPassing clouds.6 mph82%30.24 "HgN/A
10:30 PM59 °FPassing clouds.7 mph77%30.24 "HgN/A
10:00 PM59 °FPassing clouds.6 mph77%30.24 "HgN/A
9:30 PM59 °FPassing clouds.7 mph77%30.24 "HgN/A
9:00 PM59 °FPassing clouds.9 mph72%30.24 "HgN/A
Weather by CustomWeather, © 2014

See weather overviewHow to use our weather pages